Location: Ocean City
(38.3360°N, 75.0850°W)
Time: 05:59:07
(UTC-04:00)

Max Valier Satellite - Pass Details

Date: 27 May 2019
Orbit: 492 x 507 km, 97.4° (Epoch: 19 June)

Event Time Altitude Azimuth Distance (km) Brightness Sun altitude
Exits shadow 22:26:19 29° 220° (SW) 951 ? -20.5°
Maximum altitude 22:27:31 37° 262° (W) 790 ? -20.7°
Drops below altitude 10° 22:30:59 10° 331° (NNW) 1,719 ? -21.1°
Sets 22:33:12 0° 340° (NNW) 2,611 ? -21.3°
